User: anonymous   Login
Location: Albany
(35.0000°S, 118.0000°E)
Time: 09:41:36
(UTC-04:00)
Language:

Cosmos 2227 Rocket - Orbit

View from above orbital plane
View from above orbital plane
View from above satellite
View from above satellite

Ground track
Ground track

The orbit data is extracted from the following two-line orbital elements,

1 22285U 92093B   16237.11546894  .00000020  00000-0  35054-4 0  9992
2 22285  71.0223 115.4610 0005891 238.1016 121.9534 14.15001835220511
Epoch (UTC): 24 August 2016 02:46:16
Eccentricity: 0.0005891
inclination: 71.0223°
perigee height: 838 km
apogee height: 846 km
right ascension of ascending node: 115.4610°
argument of perigee: 238.1016°
revolutions per day: 14.15001835
mean anomaly at epoch: 121.9534°
orbit number at epoch: 22051

The dashed part of the orbit path shows where the satellite is in the earth's shadow,  

DLR